Regional Weather Roundup
Issued by NWS

Home | Current Version | Previous Version | Text Only | Print | Product List | Glossary On
Versions: 1 2 3 4 5 6 7 8 9 10 11 12 13 14 15 16 17 18 19 20 21 22 23 24 25 26 27 28 29 30 31 32 33 34 35 36 37 38 39 40 41 42 43 44 45 46 47 48 49 50
000
ASUS43 KMKX 222211
RWRWI

WISCONSIN REGIONAL WEATHER ROUNDUP
NATIONAL WEATHER SERVICE MILWAUKEE/SULLIVAN WI
500 PM CDT SAT APR 22 2017

NOTE: "FAIR" INDICATES FEW OR NO CLOUDS BELOW 12,000 FEET WITH NO
SIGNIFICANT WEATHER AND/OR OBSTRUCTIONS TO VISIBILITY.

WIZ001-002-006>008-014>016-023>028-222300-
NORTHWEST WISCONSIN

CITY           SKY/WX    TMP DP  RH WIND       PRES   REMARKS
SUPERIOR ARPT  MOSUNNY   68  35  29 W12G20    30.04F
ASHLAND        SUNNY     70  31  23 W18G26    30.04F
HAYWARD        SUNNY     67  29  24 SW13G23   30.08F
SIREN          SUNNY     67  31  25 W13G22    30.10F
CUMBERLAND     SUNNY     64  32  29 W13G18    30.11F
RICE LAKE      SUNNY     67  31  26 W10       30.13F
CHETEK         SUNNY     66  35  31 W5G20     30.12F
LADYSMITH      SUNNY     66  32  28 W10       30.13F
EAU CLAIRE     SUNNY     66  29  24 W9        30.13F
MENOMONIE      SUNNY     67  31  26 SW7       30.13F
NEW RICHMOND   SUNNY     67  28  23 SW7       30.13F
OSCEOLA        SUNNY     68  34  28 W9        30.15F
$$

WIZ003>005-009-010-017-018-222300-
NORTH CENTRAL WISCONSIN

CITY           SKY/WX    TMP DP  RH WIND       PRES   REMARKS
MANITOWISH WTR SUNNY     65  26  23 W15G23    30.07F
ARBOR VITAE    SUNNY     65  25  21 W13       30.07F
WOODRUFF       SUNNY     65  25  21 W13       30.07F
RHINELANDER    SUNNY     66  27  23 W16G25    30.10F
EAGLE RIVER    SUNNY     65  23  19 SW13G18   30.07F
LAND O LAKES   SUNNY     66  20  17 W8G23     30.08S
PHILLIPS       SUNNY     65  30  27 W12G18    30.09F
TOMAHAWK       SUNNY     65  27  24 W10G17    30.11F
MEDFORD        SUNNY     61  31  31 W9        30.12F
MERRILL        SUNNY     65  32  29 W15       30.11F
$$

WIZ029-030-035-036-043>047-222300-
CENTRAL WISCONSIN

CITY           SKY/WX    TMP DP  RH WIND       PRES   REMARKS
WAUSAU         SUNNY     62  31  31 W13       30.11F
MOSINEE        MOSUNNY   63  32  31 SW9       30.14F
MARSHFIELD     SUNNY     63  28  26 SW12G20   30.12F
STEVENS POINT  SUNNY     61  26  25 W9        30.14F
WAUPACA        SUNNY     68  22  17 W6        30.13F
WAUTOMA        SUNNY     64  23  21 NW6       30.14F
WISC RAPIDS    CLOUDY    65  26  23 VRB6      30.14F
CAMP DOUGLAS   NOT AVBL
$$

WIZ011>013-019>022-031-037>040-048>050-222300-
NORTHEAST WISCONSIN

CITY           SKY/WX    TMP DP  RH WIND       PRES   REMARKS
ANTIGO         SUNNY     62  32  32 W12G17    30.11F
SHAWANO        SUNNY     68  25  19 SW8       30.11F
OCONTO         SUNNY     62  29  29 S9        30.10F
STURGEON BAY   SUNNY     60  34  37 S13       30.12F
GREEN BAY      SUNNY     63  33  32 SW8       30.13F
MANITOWOC      SUNNY     55  29  36 SE8       30.16S
APPLETON       MOSUNNY   63  23  22 SW10      30.12F
CLINTONVILLE   SUNNY     64  28  25 SW9       30.11F
OSHKOSH        SUNNY     61  33  35 E6        30.14F
$$

WIZ032>034-041-042-053>061-222300-
SOUTHWEST WISCONSIN

CITY           SKY/WX    TMP DP  RH WIND       PRES   REMARKS
LA CROSSE      SUNNY     68  21  16 N8        30.14F
SPARTA         SUNNY     65  29  25 W7        30.15F
VIROQUA        SUNNY     64  28  25 NW3       30.16F
BOSCOBEL       SUNNY     67  22  18 CALM      30.15F
PRAIRIE DU CHI SUNNY     66  19  17 W9        30.15F
PLATTEVILLE    SUNNY     63  29  28 N7        30.17S
$$

WIZ056-057-062-063-064-067-068-222300-
SOUTH CENTRAL WISCONSIN

CITY           SKY/WX    TMP DP  RH WIND       PRES   REMARKS
REEDSBURG      SUNNY     64  25  23 NW5       30.15S
BARABOO/DELLS  SUNNY     64  24  22 CALM      30.15S
LONE ROCK      SUNNY     66  23  19 NW5       30.15F
MINERAL POINT  SUNNY     64  21  19 CALM      30.16S
MADISON        MOSUNNY   62  27  26 CALM      30.15F
MIDDLETON      SUNNY     64  29  26 CALM      30.17S
WATERTOWN      SUNNY     61  31  31 CALM      30.15S
MONROE         SUNNY     61  30  31 N3        30.16S
JANESVILLE     MOSUNNY   64  25  22 N14       30.15S
$$

WIZ051-052-058>065-066-070>072-222300-
SOUTHEAST WISCONSIN

CITY           SKY/WX    TMP DP  RH WIND       PRES   REMARKS
MILWAUKEE      MOSUNNY   57  22  25 E7        30.17F
WAUKESHA       SUNNY     59  25  27 E5        30.17F
MILWAUKEE/TIMM SUNNY     59   9  13 E7        30.18S
RACINE         SUNNY     57  23  26 NE7       30.19F
KENOSHA        SUNNY     58  25  28 E5        30.17F
FOND DU LAC    SUNNY     62  29  28 CALM      30.15F
SHEBOYGAN      SUNNY     59  31  34 SE7       30.15F
WEST BEND      SUNNY     61  32  33 SE8       30.15S
JUNEAU         SUNNY     61  29  30 CALM      30.16F
$$

LSZ147-162-222300-
LAKE SUPERIOR

STATION/POSITION TIME  TEMP    WIND        PRES    WAVE
                       AIR SEA DIR/SP/G            HT/PER
                 (UTC) (F)     (DEG/KT/KT) (MB)    (FT/S)
DEVILS ISLAND    2200   56     230/ 19/ 21 1016.5F
PORT WING        2040   64     250/ 12/ 16 1017.9F
SAXON HARBOR     2140   68     290/ 10/ 22 1016.9F
$$

LMZ867-665-643>646-222300-
LAKE MICHIGAN

STATION/POSITION TIME  TEMP    WIND        PRES    WAVE
                       AIR SEA DIR/SP/G            HT/PER
                 (UTC) (F)     (DEG/KT/KT) (MB)    (FT/S)
CHAMBERS ISLAND  2140   59     160/ 10/ 15 1018.6F
N MID LAKE BUOY  2150   40 37  180/ 10/ 12 1021.1F   1
NORTHPORT PIER   2140   50     150/  9/ 13 1019.3F
KEWAUNEE LAKESHO 2148   45     180/ 11/ 12 1020.4F
SHEBOYGAN LAKESH 2200   45     160/  6/  6 1021.4F
PORT WASHINGTON  2140   50     170/  5/  7 1022.7S
MILWAUKEE LAKESH 2150   47     110/  1/  2   N/A
KENOSHA   LAKESH 2200   47      40/  4/  5 1022.0
$$

TC  - TEMPERATURE IN CELSIUS
VSB - VISIBILITY IN STATUTE MILES
WCI - WIND CHILL INDEX
HX  - HEAT INDEX





USA.gov is the U.S. government's official web portal to all federal, state and local government web resources and services.